Time,TemperatureF,DewpointF,PressureIn,WindDirection,WindDirectionDegrees,WindSpeedMPH,WindSpeedGustMPH,Humidity,HourlyPrecipIn,Conditions,Clouds,dailyrainin,SoftwareType,DateUTC
2013-01-18 00:14:00,18.5,16.0,30.04,NNE,19,4.0,7.0,90,0.00,,,0.00,weatherlink.com 1.10,2013-01-18 05:14:00,
2013-01-18 00:29:00,18.4,16.0,30.06,NNE,17,5.0,9.0,89,0.00,,,0.00,weatherlink.com 1.10,2013-01-18 05:29:00,
2013-01-18 00:44:00,18.1,15.0,30.05,NE,38,8.0,13.0,88,0.00,,,0.00,weatherlink.com 1.10,2013-01-18 05:44:00,
2013-01-18 00:59:00,17.6,15.0,30.04,NE,43,15.0,15.0,88,0.00,,,0.00,weatherlink.com 1.10,2013-01-18 05:59:00,
2013-01-18 01:14:00,17.1,13.0,30.06,NNE,32,11.0,19.0,84,0.00,,,0.00,weatherlink.com 1.10,2013-01-18 06:14:00,
2013-01-18 01:29:00,16.6,13.0,30.07,NNE,20,8.0,19.0,85,0.00,,,0.00,weatherlink.com 1.10,2013-01-18 06:29:00,
2013-01-18 01:44:00,16.3,13.0,30.08,NE,38,3.0,11.0,86,0.00,,,0.00,weatherlink.com 1.10,2013-01-18 06:44:00,
2013-01-18 01:59:00,15.9,12.0,30.09,NNE,19,8.0,12.0,85,0.00,,,0.00,weatherlink.com 1.10,2013-01-18 06:59:00,
2013-01-18 02:14:00,15.9,13.0,30.10,NE,37,6.0,11.0,86,0.00,,,0.00,weatherlink.com 1.10,2013-01-18 07:14:00,
2013-01-18 02:29:00,15.7,13.0,30.11,NE,37,5.0,7.0,87,0.00,,,0.00,weatherlink.com 1.10,2013-01-18 07:29:00,
2013-01-18 02:44:00,15.9,13.0,30.12,NE,38,6.0,9.0,87,0.00,,,0.00,weatherlink.com 1.10,2013-01-18 07:44:00,
2013-01-18 02:59:00,16.2,14.0,30.13,North,355,6.0,10.0,89,0.00,,,0.00,weatherlink.com 1.10,2013-01-18 07:59:00,
2013-01-18 03:14:00,16.2,14.0,30.14,North,5,6.0,9.0,90,0.00,,,0.00,weatherlink.com 1.10,2013-01-18 08:14:00,
2013-01-18 03:29:00,16.2,14.0,30.14,NNE,17,6.0,8.0,90,0.00,,,0.00,weatherlink.com 1.10,2013-01-18 08:29:00,
2013-01-18 03:44:00,16.3,14.0,30.14,NNE,18,8.0,10.0,91,0.00,,,0.00,weatherlink.com 1.10,2013-01-18 08:44:00,
2013-01-18 03:59:00,15.9,14.0,30.15,NE,46,8.0,16.0,91,0.00,,,0.00,weatherlink.com 1.10,2013-01-18 08:59:00,
2013-01-18 04:14:00,15.6,13.0,30.16,NE,56,2.0,8.0,90,0.00,,,0.00,weatherlink.com 1.10,2013-01-18 09:14:00,
2013-01-18 04:29:00,15.3,13.0,30.16,NE,47,1.0,6.0,90,0.00,,,0.00,weatherlink.com 1.10,2013-01-18 09:29:00,
2013-01-18 04:44:00,14.9,13.0,30.17,NNE,27,2.0,6.0,90,0.00,,,0.00,weatherlink.com 1.10,2013-01-18 09:44:00,
2013-01-18 04:59:00,14.6,12.0,30.19,NE,49,1.0,6.0,90,0.00,,,0.00,weatherlink.com 1.10,2013-01-18 09:59:00,
2013-01-18 05:14:00,14.5,12.0,30.19,SE,139,0.0,5.0,90,0.00,,,0.00,weatherlink.com 1.10,2013-01-18 10:14:00,
2013-01-18 05:29:00,14.4,12.0,30.20,ESE,110,2.0,4.0,90,0.00,,,0.00,weatherlink.com 1.10,2013-01-18 10:29:00,
2013-01-18 05:44:00,14.4,12.0,30.21,ENE,77,2.0,5.0,90,0.00,,,0.00,weatherlink.com 1.10,2013-01-18 10:44:00,
2013-01-18 05:59:00,14.5,12.0,30.23,NNE,26,1.0,5.0,90,0.00,,,0.00,weatherlink.com 1.10,2013-01-18 10:59:00,
2013-01-18 06:14:00,14.5,12.0,30.24,ENE,75,1.0,5.0,89,0.00,,,0.00,weatherlink.com 1.10,2013-01-18 11:14:00,
2013-01-18 06:30:00,14.5,12.0,30.24,NE,52,2.0,5.0,89,0.00,,,0.00,weatherlink.com 1.10,2013-01-18 11:30:00,
2013-01-18 06:45:00,14.0,11.0,30.25,ENE,59,2.0,4.0,88,0.00,,,0.00,weatherlink.com 1.10,2013-01-18 11:45:00,
2013-01-18 07:15:00,13.9,11.0,30.27,ENE,66,0.0,0.0,89,0.00,,,0.00,weatherlink.com 1.10,2013-01-18 12:15:00,
2013-01-18 07:30:00,14.1,12.0,30.27,NNE,32,0.0,4.0,89,0.00,,,0.00,weatherlink.com 1.10,2013-01-18 12:30:00,
2013-01-18 07:45:00,14.0,11.0,30.28,NNE,32,0.0,0.0,89,0.00,,,0.00,weatherlink.com 1.10,2013-01-18 12:45:00,
2013-01-18 08:00:00,14.2,12.0,30.29,NNE,32,0.0,0.0,89,0.00,,,0.00,weatherlink.com 1.10,2013-01-18 13:00:00,
2013-01-18 08:15:00,14.3,12.0,30.29,West,274,1.0,2.0,89,0.00,,,0.00,weatherlink.com 1.10,2013-01-18 13:15:00,
2013-01-18 08:30:00,15.0,13.0,30.30,West,263,7.0,9.0,90,0.00,,,0.00,weatherlink.com 1.10,2013-01-18 13:30:00,
2013-01-18 08:45:00,14.8,12.0,30.30,WSW,254,5.0,7.0,90,0.00,,,0.00,weatherlink.com 1.10,2013-01-18 13:45:00,
2013-01-18 09:00:00,15.4,13.0,30.31,WSW,252,5.0,8.0,90,0.00,,,0.00,weatherlink.com 1.10,2013-01-18 14:00:00,
2013-01-18 09:15:00,16.4,14.0,30.32,WSW,247,8.0,10.0,88,0.00,,,0.00,weatherlink.com 1.10,2013-01-18 14:15:00,
2013-01-18 09:30:00,16.8,13.0,30.32,WSW,258,8.0,14.0,86,0.00,,,0.00,weatherlink.com 1.10,2013-01-18 14:30:00,
2013-01-18 09:45:00,17.1,13.0,30.33,NW,315,9.0,14.0,85,0.00,,,0.00,weatherlink.com 1.10,2013-01-18 14:45:00,
2013-01-18 10:00:00,17.5,13.0,30.33,NW,306,10.0,19.0,82,0.00,,,0.00,weatherlink.com 1.10,2013-01-18 15:00:00,
2013-01-18 10:15:00,18.5,14.0,30.33,WNW,294,11.0,19.0,81,0.00,,,0.00,weatherlink.com 1.10,2013-01-18 15:15:00,
2013-01-18 10:30:00,19.3,14.0,30.34,NNW,342,14.0,21.0,80,0.00,,,0.00,weatherlink.com 1.10,2013-01-18 15:30:00,
2013-01-18 10:45:00,19.4,12.0,30.33,West,277,16.0,24.0,73,0.00,,,0.00,weatherlink.com 1.10,2013-01-18 15:45:00,
2013-01-18 11:00:00,20.0,12.0,30.33,NW,306,9.0,22.0,71,0.00,,,0.00,weatherlink.com 1.10,2013-01-18 16:00:00,
2013-01-18 11:15:00,20.0,10.0,30.32,West,275,12.0,24.0,64,0.00,,,0.00,weatherlink.com 1.10,2013-01-18 16:15:00,
2013-01-18 11:30:00,20.4,10.0,30.32,NW,318,15.0,22.0,64,0.00,,,0.00,weatherlink.com 1.10,2013-01-18 16:30:00,
2013-01-18 11:45:00,20.4,10.0,30.33,WNW,288,12.0,24.0,63,0.00,,,0.00,weatherlink.com 1.10,2013-01-18 16:45:00,
2013-01-18 12:00:00,20.8,8.0,30.32,West,262,10.0,21.0,58,0.00,,,0.00,weatherlink.com 1.10,2013-01-18 17:00:00,
2013-01-18 12:15:00,21.2,6.0,30.32,WNW,284,19.0,21.0,52,0.00,,,0.00,weatherlink.com 1.10,2013-01-18 17:15:00,
2013-01-18 12:30:00,21.4,7.0,30.31,WNW,289,14.0,23.0,53,0.00,,,0.00,weatherlink.com 1.10,2013-01-18 17:30:00,
2013-01-18 12:45:00,21.5,7.0,30.32,WNW,287,10.0,21.0,54,0.00,,,0.00,weatherlink.com 1.10,2013-01-18 17:45:00,
2013-01-18 13:00:00,21.3,7.0,30.32,West,271,12.0,22.0,54,0.00,,,0.00,weatherlink.com 1.10,2013-01-18 18:00:00,
2013-01-18 13:15:00,21.3,7.0,30.31,NW,309,9.0,16.0,54,0.00,,,0.00,weatherlink.com 1.10,2013-01-18 18:15:00,
2013-01-18 13:30:00,21.3,6.0,30.31,WNW,294,11.0,16.0,53,0.00,,,0.00,weatherlink.com 1.10,2013-01-18 18:30:00,
2013-01-18 13:45:00,22.2,9.0,30.32,WSW,256,10.0,18.0,57,0.00,,,0.00,weatherlink.com 1.10,2013-01-18 18:45:00,
2013-01-18 14:00:00,22.2,9.0,30.32,WSW,241,11.0,16.0,57,0.00,,,0.00,weatherlink.com 1.10,2013-01-18 19:00:00,
2013-01-18 14:15:00,22.3,9.0,30.31,WSW,250,9.0,14.0,57,0.00,,,0.00,weatherlink.com 1.10,2013-01-18 19:15:00,
2013-01-18 14:30:00,22.0,9.0,30.30,West,267,8.0,14.0,57,0.00,,,0.00,weatherlink.com 1.10,2013-01-18 19:30:00,
2013-01-18 14:45:00,22.0,10.0,30.30,WSW,254,10.0,13.0,59,0.00,,,0.00,weatherlink.com 1.10,2013-01-18 19:45:00,
2013-01-18 15:00:00,22.1,10.0,30.29,WSW,244,11.0,15.0,59,0.00,,,0.00,weatherlink.com 1.10,2013-01-18 20:00:00,
2013-01-18 15:15:00,22.3,10.0,30.29,WNW,295,9.0,10.0,59,0.00,,,0.00,weatherlink.com 1.10,2013-01-18 20:15:00,
2013-01-18 15:30:00,22.4,10.0,30.29,WSW,255,7.0,11.0,58,0.00,,,0.00,weatherlink.com 1.10,2013-01-18 20:30:00,
2013-01-18 15:45:00,23.1,9.0,30.28,SW,231,6.0,10.0,56,0.00,,,0.00,weatherlink.com 1.10,2013-01-18 20:45:00,
2013-01-18 16:00:00,23.1,9.0,30.28,WSW,242,7.0,8.0,56,0.00,,,0.00,weatherlink.com 1.10,2013-01-18 21:00:00,
2013-01-18 16:16:00,25.8,12.0,30.27,SW,229,1.0,5.0,56,0.00,,,0.00,weatherlink.com 1.10,2013-01-18 21:16:00,
2013-01-18 16:31:00,25.8,11.0,30.26,WSW,244,3.0,5.0,53,0.00,,,0.00,weatherlink.com 1.10,2013-01-18 21:31:00,
2013-01-18 16:46:00,22.8,11.0,30.26,SW,227,0.0,6.0,60,0.00,,,0.00,weatherlink.com 1.10,2013-01-18 21:46:00,
2013-01-18 17:01:00,22.5,11.0,30.25,SW,231,2.0,12.0,61,0.00,,,0.00,weatherlink.com 1.10,2013-01-18 22:01:00,
2013-01-18 17:16:00,22.4,12.0,30.25,West,259,2.0,5.0,64,0.00,,,0.00,weatherlink.com 1.10,2013-01-18 22:16:00,
2013-01-18 17:31:00,22.5,12.0,30.25,South,185,0.0,5.0,65,0.00,,,0.00,weatherlink.com 1.10,2013-01-18 22:31:00,
2013-01-18 17:46:00,22.8,13.0,30.24,SSW,208,2.0,8.0,65,0.00,,,0.00,weatherlink.com 1.10,2013-01-18 22:46:00,
2013-01-18 18:01:00,23.3,12.0,30.23,SW,235,4.0,8.0,63,0.00,,,0.00,weatherlink.com 1.10,2013-01-18 23:01:00,
2013-01-18 18:16:00,23.3,12.0,30.24,SW,234,12.0,13.0,63,0.00,,,0.00,weatherlink.com 1.10,2013-01-18 23:16:00,
2013-01-18 18:31:00,23.2,11.0,30.23,SW,223,1.0,5.0,61,0.00,,,0.00,weatherlink.com 1.10,2013-01-18 23:31:00,
2013-01-18 18:46:00,23.0,11.0,30.22,SW,224,1.0,6.0,61,0.00,,,0.00,weatherlink.com 1.10,2013-01-18 23:46:00,
2013-01-18 19:01:00,22.6,12.0,30.22,South,178,1.0,2.0,63,0.00,,,0.00,weatherlink.com 1.10,2013-01-19 00:01:00,
2013-01-18 19:16:00,23.0,12.0,30.21,WSW,255,2.0,7.0,64,0.00,,,0.00,weatherlink.com 1.10,2013-01-19 00:16:00,
2013-01-18 19:31:00,23.8,13.0,30.21,SW,223,4.0,9.0,63,0.00,,,0.00,weatherlink.com 1.10,2013-01-19 00:31:00,
2013-01-18 19:46:00,24.2,13.0,30.20,East,80,0.0,8.0,63,0.00,,,0.00,weatherlink.com 1.10,2013-01-19 00:46:00,
2013-01-18 20:01:00,24.5,12.0,30.20,SE,142,0.0,7.0,60,0.00,,,0.00,weatherlink.com 1.10,2013-01-19 01:01:00,
2013-01-18 20:16:00,24.6,13.0,30.20,NW,319,1.0,6.0,62,0.00,,,0.00,weatherlink.com 1.10,2013-01-19 01:16:00,
2013-01-18 20:31:00,24.7,13.0,30.18,SSW,202,0.0,6.0,62,0.00,,,0.00,weatherlink.com 1.10,2013-01-19 01:31:00,
2013-01-18 20:46:00,24.9,13.0,30.18,SSW,213,4.0,9.0,61,0.00,,,0.00,weatherlink.com 1.10,2013-01-19 01:46:00,
2013-01-18 21:01:00,24.9,13.0,30.16,East,94,0.0,7.0,61,0.00,,,0.00,weatherlink.com 1.10,2013-01-19 02:01:00,
2013-01-18 21:16:00,25.1,13.0,30.15,SSW,209,5.0,10.0,61,0.00,,,0.00,weatherlink.com 1.10,2013-01-19 02:16:00,
2013-01-18 21:31:00,25.3,13.0,30.14,SSW,202,4.0,8.0,60,0.00,,,0.00,weatherlink.com 1.10,2013-01-19 02:31:00,
2013-01-18 21:46:00,25.4,14.0,30.14,ENE,68,1.0,8.0,61,0.00,,,0.00,weatherlink.com 1.10,2013-01-19 02:46:00,
2013-01-18 22:16:00,25.6,14.0,30.11,SSW,202,1.0,9.0,62,0.00,,,0.00,weatherlink.com 1.10,2013-01-19 03:16:00,
2013-01-18 22:31:00,26.0,14.0,30.10,North,349,2.0,8.0,61,0.00,,,0.00,weatherlink.com 1.10,2013-01-19 03:31:00,
2013-01-18 23:01:00,26.5,15.0,30.09,ENE,74,1.0,8.0,61,0.00,,,0.00,weatherlink.com 1.10,2013-01-19 04:01:00,
2013-01-18 23:16:00,27.1,15.0,30.07,South,175,7.0,10.0,61,0.00,,,0.00,weatherlink.com 1.10,2013-01-19 04:16:00,
2013-01-18 23:31:00,28.0,15.0,30.06,South,186,8.0,15.0,58,0.00,,,0.00,weatherlink.com 1.10,2013-01-19 04:31:00,
2013-01-18 23:46:00,28.7,15.0,30.06,South,169,7.0,11.0,58,0.00,,,0.00,weatherlink.com 1.10,2013-01-19 04:46:00,